TimeEDT,TemperatureF,Dew PointF,Humidity,Sea Level PressureIn,VisibilityMPH,Wind Direction,Wind SpeedMPH,Gust SpeedMPH,PrecipitationIn,Events,Conditions,WindDirDegrees,DateUTC
12:52 AM,53.1,50.0,89,30.14,10.0,SSE,5.8,-,N/A,,Clear,160,2013-04-24 04:52:00
1:52 AM,53.1,50.0,89,30.13,10.0,South,5.8,-,N/A,,Clear,170,2013-04-24 05:52:00
2:52 AM,51.1,48.9,92,30.12,10.0,South,5.8,-,N/A,,Clear,180,2013-04-24 06:52:00
3:52 AM,51.1,48.9,92,30.12,10.0,SSW,4.6,-,N/A,,Partly Cloudy,200,2013-04-24 07:52:00
4:52 AM,51.1,50.0,96,30.12,10.0,South,3.5,-,N/A,,Clear,180,2013-04-24 08:52:00
5:52 AM,50.0,48.9,96,30.12,8.0,Calm,Calm,-,N/A,,Partly Cloudy,0,2013-04-24 09:52:00
6:13 AM,50.0,48.2,94,30.14,9.0,Calm,Calm,-,N/A,,Mostly Cloudy,0,2013-04-24 10:13:00
6:24 AM,51.8,48.2,88,30.14,9.0,Calm,Calm,-,N/A,,Overcast,0,2013-04-24 10:24:00
6:52 AM,53.1,52.0,96,30.13,7.0,SSW,3.5,-,N/A,,Overcast,210,2013-04-24 10:52:00
7:33 AM,53.6,51.8,94,30.14,4.0,SSW,9.2,-,N/A,,Overcast,200,2013-04-24 11:33:00
7:52 AM,53.1,53.1,100,30.15,6.0,SSW,8.1,-,N/A,,Overcast,210,2013-04-24 11:52:00
8:52 AM,54.0,53.1,97,30.14,6.0,South,8.1,-,N/A,,Overcast,190,2013-04-24 12:52:00
9:42 AM,55.4,53.6,94,30.16,6.0,SSW,6.9,-,N/A,,Overcast,200,2013-04-24 13:42:00
9:52 AM,55.9,53.1,90,30.15,6.0,SSW,10.4,-,N/A,,Overcast,200,2013-04-24 13:52:00
10:44 AM,59.0,53.6,82,30.13,9.0,SSW,11.5,-,N/A,,Overcast,200,2013-04-24 14:44:00
10:52 AM,60.1,54.0,80,30.12,9.0,South,11.5,-,N/A,,Overcast,190,2013-04-24 14:52:00
11:09 AM,60.8,53.6,77,30.14,10.0,SSW,10.4,-,N/A,,Overcast,210,2013-04-24 15:09:00
11:36 AM,62.6,55.4,77,30.13,10.0,SSW,9.2,-,N/A,,Mostly Cloudy,200,2013-04-24 15:36:00
11:52 AM,64.9,55.9,73,30.12,10.0,South,11.5,-,N/A,,Mostly Cloudy,190,2013-04-24 15:52:00
12:10 PM,66.2,55.4,68,30.13,10.0,SW,13.8,19.6,N/A,,Mostly Cloudy,220,2013-04-24 16:10:00
12:52 PM,70.0,55.9,61,30.11,10.0,SSW,10.4,20.7,N/A,,Mostly Cloudy,200,2013-04-24 16:52:00
1:52 PM,73.4,55.4,53,30.10,9.0,SSW,10.4,-,N/A,,Mostly Cloudy,210,2013-04-24 17:52:00
2:52 PM,73.9,54.0,50,30.07,10.0,SW,13.8,24.2,N/A,,Overcast,220,2013-04-24 18:52:00
3:52 PM,73.0,53.1,49,30.03,10.0,SW,15.0,26.5,N/A,,Overcast,230,2013-04-24 19:52:00
4:52 PM,73.0,53.1,49,30.02,10.0,SW,15.0,23.0,N/A,,Overcast,230,2013-04-24 20:52:00
5:52 PM,73.0,54.0,51,30.01,10.0,SW,10.4,20.7,N/A,,Overcast,220,2013-04-24 21:52:00
6:52 PM,72.0,55.0,55,30.03,10.0,SW,10.4,-,N/A,,Overcast,220,2013-04-24 22:52:00
7:52 PM,70.0,55.0,59,30.02,10.0,SSW,9.2,-,N/A,,Mostly Cloudy,210,2013-04-24 23:52:00
8:52 PM,69.1,55.0,61,30.03,10.0,SW,9.2,-,N/A,,Scattered Clouds,220,2013-04-25 00:52:00
9:52 PM,66.9,55.0,66,30.04,10.0,SW,11.5,-,N/A,,Scattered Clouds,220,2013-04-25 01:52:00
10:52 PM,66.0,55.9,70,30.05,10.0,SW,11.5,16.1,N/A,,Partly Cloudy,230,2013-04-25 02:52:00
11:52 PM,64.0,57.0,78,30.04,10.0,SW,10.4,-,N/A,,Clear,230,2013-04-25 03:52:00